Time,TemperatureF,DewpointF,PressureIn,WindDirection,WindDirectionDegrees,WindSpeedMPH,WindSpeedGustMPH,Humidity,HourlyPrecipIn,Conditions,Clouds,dailyrainin,SoftwareType,DateUTC
2013-05-08 00:00:00,53.0,53.0,30.02,South,170,15.0,16.0,100,-99.99,,,-99.99,,2013-05-08 07:00:00,
2013-05-08 00:21:00,53.0,53.0,30.02,South,170,15.0,16.0,100,-99.99,,,-99.99,,2013-05-08 07:21:00,
2013-05-08 00:31:00,53.0,53.0,30.02,South,170,15.0,16.0,100,-99.99,,,-99.99,,2013-05-08 07:31:00,
2013-05-08 00:41:00,53.0,53.0,30.02,South,170,15.0,16.0,100,-99.99,,,-99.99,,2013-05-08 07:41:00,
2013-05-08 00:52:00,53.0,53.0,30.02,South,170,15.0,16.0,100,-99.99,,,-99.99,,2013-05-08 07:52:00,
2013-05-08 01:00:00,53.0,53.0,30.04,South,170,14.0,15.0,100,-99.99,,,-99.99,,2013-05-08 08:00:00,
2013-05-08 01:21:00,53.0,53.0,30.04,South,170,14.0,15.0,100,-99.99,,,-99.99,,2013-05-08 08:21:00,
2013-05-08 01:31:00,53.0,53.0,30.04,South,170,14.0,15.0,100,-99.99,,,-99.99,,2013-05-08 08:31:00,
2013-05-08 01:42:00,53.0,53.0,30.04,South,170,14.0,15.0,100,-99.99,,,-99.99,,2013-05-08 08:42:00,
2013-05-08 01:51:00,53.0,53.0,30.04,South,170,14.0,15.0,100,-99.99,,,-99.99,,2013-05-08 08:51:00,
2013-05-08 02:00:00,52.0,52.0,30.05,South,180,14.0,15.0,100,-99.99,,,-99.99,,2013-05-08 09:00:00,
2013-05-08 02:21:00,52.0,52.0,30.05,South,180,14.0,15.0,100,-99.99,,,-99.99,,2013-05-08 09:21:00,
2013-05-08 02:32:00,52.0,52.0,30.05,South,180,14.0,15.0,100,-99.99,,,-99.99,,2013-05-08 09:32:00,
2013-05-08 02:42:00,52.0,52.0,30.05,South,180,14.0,15.0,100,-99.99,,,-99.99,,2013-05-08 09:42:00,
2013-05-08 02:52:00,52.0,52.0,30.05,South,180,14.0,15.0,100,-99.99,,,-99.99,,2013-05-08 09:52:00,
2013-05-08 03:00:00,52.0,52.0,30.06,South,180,15.0,17.0,100,-99.99,,,-99.99,,2013-05-08 10:00:00,
2013-05-08 03:22:00,52.0,52.0,30.06,South,180,15.0,17.0,100,-99.99,,,-99.99,,2013-05-08 10:22:00,
2013-05-08 03:32:00,52.0,52.0,30.06,South,180,15.0,17.0,100,-99.99,,,-99.99,,2013-05-08 10:32:00,
2013-05-08 03:42:00,52.0,52.0,30.06,South,180,15.0,17.0,100,-99.99,,,-99.99,,2013-05-08 10:42:00,
2013-05-08 03:52:00,52.0,52.0,30.06,South,180,15.0,17.0,100,-99.99,,,-99.99,,2013-05-08 10:52:00,
2013-05-08 04:00:00,52.0,52.0,30.08,South,180,16.0,17.0,100,-99.99,,,-99.99,,2013-05-08 11:00:00,
2013-05-08 04:22:00,52.0,52.0,30.08,South,180,16.0,17.0,100,-99.99,,,-99.99,,2013-05-08 11:22:00,
2013-05-08 04:32:00,52.0,52.0,30.08,South,180,16.0,17.0,100,-99.99,,,-99.99,,2013-05-08 11:32:00,
2013-05-08 04:41:00,52.0,52.0,30.08,South,180,16.0,17.0,100,-99.99,,,-99.99,,2013-05-08 11:41:00,
2013-05-08 04:51:00,52.0,52.0,30.08,South,180,16.0,17.0,100,-99.99,,,-99.99,,2013-05-08 11:51:00,
2013-05-08 05:00:00,52.0,52.0,30.09,South,190,14.0,16.0,100,-99.99,,,-99.99,,2013-05-08 12:00:00,
2013-05-08 05:21:00,52.0,52.0,30.09,South,190,14.0,16.0,100,-99.99,,,-99.99,,2013-05-08 12:21:00,
2013-05-08 05:31:00,52.0,52.0,30.09,South,190,14.0,16.0,100,-99.99,,,-99.99,,2013-05-08 12:31:00,
2013-05-08 05:41:00,52.0,52.0,30.09,South,190,14.0,16.0,100,-99.99,,,-99.99,,2013-05-08 12:41:00,
2013-05-08 05:51:00,52.0,52.0,30.09,South,190,14.0,16.0,100,-99.99,,,-99.99,,2013-05-08 12:51:00,
2013-05-08 06:00:00,52.0,52.0,30.10,South,190,11.0,13.0,100,-99.99,,,-99.99,,2013-05-08 13:00:00,
2013-05-08 06:21:00,52.0,52.0,30.10,South,190,11.0,13.0,100,-99.99,,,-99.99,,2013-05-08 13:21:00,
2013-05-08 06:32:00,52.0,52.0,30.10,South,190,11.0,13.0,100,-99.99,,,-99.99,,2013-05-08 13:32:00,
2013-05-08 06:42:00,52.0,52.0,30.10,South,190,11.0,13.0,100,-99.99,,,-99.99,,2013-05-08 13:42:00,
2013-05-08 06:52:00,52.0,52.0,30.10,South,190,11.0,13.0,100,-99.99,,,-99.99,,2013-05-08 13:52:00,
2013-05-08 07:00:00,52.0,52.0,30.11,SSW,200,11.0,13.0,100,-99.99,,,-99.99,,2013-05-08 14:00:00,
2013-05-08 07:21:00,52.0,52.0,30.11,SSW,200,11.0,13.0,100,-99.99,,,-99.99,,2013-05-08 14:21:00,
2013-05-08 07:31:00,52.0,52.0,30.11,SSW,200,11.0,13.0,100,-99.99,,,-99.99,,2013-05-08 14:31:00,
2013-05-08 07:41:00,52.0,52.0,30.11,SSW,200,11.0,13.0,100,-99.99,,,-99.99,,2013-05-08 14:41:00,
2013-05-08 07:51:00,52.0,52.0,30.11,SSW,200,11.0,13.0,100,-99.99,,,-99.99,,2013-05-08 14:51:00,
2013-05-08 08:00:00,52.0,52.0,30.13,South,180,11.0,13.0,100,-99.99,,,-99.99,,2013-05-08 15:00:00,
2013-05-08 08:21:00,52.0,52.0,30.13,South,180,11.0,13.0,100,-99.99,,,-99.99,,2013-05-08 15:21:00,
2013-05-08 08:32:00,52.0,52.0,30.13,South,180,11.0,13.0,100,-99.99,,,-99.99,,2013-05-08 15:32:00,
2013-05-08 08:42:00,52.0,52.0,30.13,South,180,11.0,13.0,100,-99.99,,,-99.99,,2013-05-08 15:42:00,
2013-05-08 08:52:00,52.0,52.0,30.13,South,180,11.0,13.0,100,-99.99,,,-99.99,,2013-05-08 15:52:00,
2013-05-08 09:00:00,53.0,53.0,30.14,South,170,10.0,13.0,100,-99.99,,,-99.99,,2013-05-08 16:00:00,
2013-05-08 09:23:00,53.0,53.0,30.14,South,170,10.0,13.0,100,-99.99,,,-99.99,,2013-05-08 16:23:00,
2013-05-08 09:32:00,53.0,53.0,30.14,South,170,10.0,13.0,100,-99.99,,,-99.99,,2013-05-08 16:32:00,
2013-05-08 09:42:00,53.0,53.0,30.14,South,170,10.0,13.0,100,-99.99,,,-99.99,,2013-05-08 16:42:00,
2013-05-08 09:52:00,53.0,53.0,30.14,South,170,10.0,13.0,100,-99.99,,,-99.99,,2013-05-08 16:52:00,
2013-05-08 10:00:00,53.0,53.0,30.14,SSW,200,11.0,13.0,100,-99.99,,,-99.99,,2013-05-08 17:00:00,
2013-05-08 10:22:00,53.0,53.0,30.14,SSW,200,11.0,13.0,100,-99.99,,,-99.99,,2013-05-08 17:22:00,
2013-05-08 10:31:00,53.0,53.0,30.14,SSW,200,11.0,13.0,100,-99.99,,,-99.99,,2013-05-08 17:31:00,
2013-05-08 10:41:00,53.0,53.0,30.14,SSW,200,11.0,13.0,100,-99.99,,,-99.99,,2013-05-08 17:41:00,
2013-05-08 10:52:00,53.0,53.0,30.14,SSW,200,11.0,13.0,100,-99.99,,,-99.99,,2013-05-08 17:52:00,
2013-05-08 11:00:00,53.0,53.0,30.16,South,180,9.0,10.0,100,-99.99,,,-99.99,,2013-05-08 18:00:00,
2013-05-08 11:21:00,53.0,53.0,30.16,South,180,9.0,10.0,100,-99.99,,,-99.99,,2013-05-08 18:21:00,
2013-05-08 11:31:00,53.0,53.0,30.16,South,180,9.0,10.0,100,-99.99,,,-99.99,,2013-05-08 18:31:00,
2013-05-08 11:41:00,53.0,53.0,30.16,South,180,9.0,10.0,100,-99.99,,,-99.99,,2013-05-08 18:41:00,
2013-05-08 11:51:00,53.0,53.0,30.16,South,180,9.0,10.0,100,-99.99,,,-99.99,,2013-05-08 18:51:00,
2013-05-08 12:00:00,54.0,54.0,30.16,South,170,8.0,9.0,100,-99.99,,,-99.99,,2013-05-08 19:00:00,
2013-05-08 12:21:00,54.0,54.0,30.16,South,170,8.0,9.0,100,-99.99,,,-99.99,,2013-05-08 19:21:00,
2013-05-08 12:31:00,54.0,54.0,30.16,South,170,8.0,9.0,100,-99.99,,,-99.99,,2013-05-08 19:31:00,
2013-05-08 12:41:00,54.0,54.0,30.16,South,170,8.0,9.0,100,-99.99,,,-99.99,,2013-05-08 19:41:00,
2013-05-08 12:52:00,54.0,54.0,30.16,South,170,8.0,9.0,100,-99.99,,,-99.99,,2013-05-08 19:52:00,
2013-05-08 13:00:00,54.0,54.0,30.16,South,170,7.0,7.0,100,-99.99,,,-99.99,,2013-05-08 20:00:00,
2013-05-08 13:21:00,54.0,54.0,30.16,South,170,7.0,7.0,100,-99.99,,,-99.99,,2013-05-08 20:21:00,
2013-05-08 13:31:00,54.0,54.0,30.16,South,170,7.0,7.0,100,-99.99,,,-99.99,,2013-05-08 20:31:00,
2013-05-08 13:41:00,54.0,54.0,30.16,South,170,7.0,7.0,100,-99.99,,,-99.99,,2013-05-08 20:41:00,
2013-05-08 13:51:00,54.0,54.0,30.16,South,170,7.0,7.0,100,-99.99,,,-99.99,,2013-05-08 20:51:00,
2013-05-08 14:00:00,55.0,55.0,30.16,South,180,3.0,3.0,100,-99.99,,,-99.99,,2013-05-08 21:00:00,
2013-05-08 14:21:00,55.0,55.0,30.16,South,180,3.0,3.0,100,-99.99,,,-99.99,,2013-05-08 21:21:00,
2013-05-08 14:32:00,55.0,55.0,30.16,South,180,3.0,3.0,100,-99.99,,,-99.99,,2013-05-08 21:32:00,
2013-05-08 14:43:00,55.0,55.0,30.16,South,180,3.0,3.0,100,-99.99,,,-99.99,,2013-05-08 21:43:00,
2013-05-08 14:52:00,55.0,55.0,30.16,South,180,3.0,3.0,100,-99.99,,,-99.99,,2013-05-08 21:52:00,
2013-05-08 15:00:00,56.0,56.0,30.16,SSE,150,6.0,7.0,99,-99.99,,,-99.99,,2013-05-08 22:00:00,
2013-05-08 15:22:00,56.0,56.0,30.16,SSE,150,6.0,7.0,99,-99.99,,,-99.99,,2013-05-08 22:22:00,
2013-05-08 15:32:00,56.0,56.0,30.16,SSE,150,6.0,7.0,99,-99.99,,,-99.99,,2013-05-08 22:32:00,
2013-05-08 15:42:00,56.0,56.0,30.16,SSE,150,6.0,7.0,99,-99.99,,,-99.99,,2013-05-08 22:42:00,
2013-05-08 15:52:00,56.0,56.0,30.16,SSE,150,6.0,7.0,99,-99.99,,,-99.99,,2013-05-08 22:52:00,
2013-05-08 16:00:00,58.0,55.0,30.14,South,180,5.0,5.0,88,-99.99,,,-99.99,,2013-05-08 23:00:00,
2013-05-08 16:32:00,58.0,55.0,30.14,South,180,5.0,5.0,88,-99.99,,,-99.99,,2013-05-08 23:32:00,
2013-05-08 16:41:00,58.0,55.0,30.14,South,180,5.0,5.0,88,-99.99,,,-99.99,,2013-05-08 23:41:00,
2013-05-08 16:52:00,58.0,55.0,30.14,South,180,5.0,5.0,88,-99.99,,,-99.99,,2013-05-08 23:52:00,
2013-05-08 17:00:00,58.0,54.0,30.14,North,0,0.0,2.0,87,-99.99,,,-99.99,,2013-05-09 00:00:00,
2013-05-08 17:21:00,58.0,54.0,30.14,North,0,0.0,2.0,87,-99.99,,,-99.99,,2013-05-09 00:21:00,
2013-05-08 17:31:00,58.0,54.0,30.14,North,0,0.0,2.0,87,-99.99,,,-99.99,,2013-05-09 00:31:00,
2013-05-08 17:42:00,58.0,54.0,30.14,North,0,0.0,2.0,87,-99.99,,,-99.99,,2013-05-09 00:42:00,
2013-05-08 17:51:00,58.0,54.0,30.14,North,0,0.0,2.0,87,-99.99,,,-99.99,,2013-05-09 00:51:00,
2013-05-08 18:00:00,58.0,53.0,30.12,NW,310,1.0,1.0,83,-99.99,,,-99.99,,2013-05-09 01:00:00,
2013-05-08 18:22:00,58.0,53.0,30.12,NW,310,1.0,1.0,83,-99.99,,,-99.99,,2013-05-09 01:22:00,
2013-05-08 18:32:00,58.0,53.0,30.12,NW,310,1.0,1.0,83,-99.99,,,-99.99,,2013-05-09 01:32:00,
2013-05-08 18:42:00,58.0,53.0,30.12,NW,310,1.0,1.0,83,-99.99,,,-99.99,,2013-05-09 01:42:00,
2013-05-08 18:52:00,58.0,53.0,30.12,NW,310,1.0,1.0,83,-99.99,,,-99.99,,2013-05-09 01:52:00,
2013-05-08 19:00:00,57.0,51.0,30.12,North,10,3.0,5.0,79,-99.99,,,-99.99,,2013-05-09 02:00:00,
2013-05-08 19:21:00,57.0,51.0,30.12,North,10,3.0,5.0,79,-99.99,,,-99.99,,2013-05-09 02:21:00,
2013-05-08 19:32:00,57.0,51.0,30.12,North,10,3.0,5.0,79,-99.99,,,-99.99,,2013-05-09 02:32:00,
2013-05-08 19:41:00,57.0,51.0,30.12,North,10,3.0,5.0,79,-99.99,,,-99.99,,2013-05-09 02:41:00,
2013-05-08 19:52:00,57.0,51.0,30.12,North,10,3.0,5.0,79,-99.99,,,-99.99,,2013-05-09 02:52:00,
2013-05-08 20:00:00,56.0,52.0,30.11,NNE,30,5.0,6.0,85,-99.99,,,-99.99,,2013-05-09 03:00:00,
2013-05-08 20:21:00,56.0,52.0,30.11,NNE,30,5.0,6.0,85,-99.99,,,-99.99,,2013-05-09 03:21:00,
2013-05-08 20:32:00,56.0,52.0,30.11,NNE,30,5.0,6.0,85,-99.99,,,-99.99,,2013-05-09 03:32:00,
2013-05-08 20:43:00,56.0,52.0,30.11,NNE,30,5.0,6.0,85,-99.99,,,-99.99,,2013-05-09 03:43:00,
2013-05-08 20:52:00,56.0,52.0,30.11,NNE,30,5.0,6.0,85,-99.99,,,-99.99,,2013-05-09 03:52:00,
2013-05-08 21:00:00,56.0,54.0,30.12,NNE,20,6.0,6.0,93,-99.99,,,-99.99,,2013-05-09 04:00:00,
2013-05-08 21:22:00,56.0,54.0,30.12,NNE,20,6.0,6.0,93,-99.99,,,-99.99,,2013-05-09 04:22:00,
2013-05-08 21:32:00,56.0,54.0,30.12,NNE,20,6.0,6.0,93,-99.99,,,-99.99,,2013-05-09 04:32:00,
2013-05-08 21:42:00,56.0,54.0,30.12,NNE,20,6.0,6.0,93,-99.99,,,-99.99,,2013-05-09 04:42:00,
2013-05-08 21:52:00,56.0,54.0,30.12,NNE,20,6.0,6.0,93,-99.99,,,-99.99,,2013-05-09 04:52:00,
2013-05-08 22:00:00,54.0,54.0,30.14,NNE,20,8.0,8.0,100,-99.99,,,-99.99,,2013-05-09 05:00:00,
2013-05-08 22:21:00,54.0,54.0,30.14,NNE,20,8.0,8.0,100,-99.99,,,-99.99,,2013-05-09 05:21:00,
2013-05-08 22:32:00,54.0,54.0,30.14,NNE,20,8.0,8.0,100,-99.99,,,-99.99,,2013-05-09 05:32:00,
2013-05-08 22:42:00,54.0,54.0,30.14,NNE,20,8.0,8.0,100,-99.99,,,-99.99,,2013-05-09 05:42:00,
2013-05-08 22:51:00,54.0,54.0,30.14,NNE,20,8.0,8.0,100,-99.99,,,-99.99,,2013-05-09 05:51:00,
2013-05-08 23:00:00,54.0,54.0,30.15,North,360,9.0,9.0,100,-99.99,,,-99.99,,2013-05-09 06:00:00,
2013-05-08 23:21:00,54.0,54.0,30.15,North,360,9.0,9.0,100,-99.99,,,-99.99,,2013-05-09 06:21:00,
2013-05-08 23:31:00,54.0,54.0,30.15,North,360,9.0,9.0,100,-99.99,,,-99.99,,2013-05-09 06:31:00,
2013-05-08 23:41:00,54.0,54.0,30.15,North,360,9.0,9.0,100,-99.99,,,-99.99,,2013-05-09 06:41:00,
2013-05-08 23:52:00,54.0,54.0,30.15,North,360,9.0,9.0,100,-99.99,,,-99.99,,2013-05-09 06:52:00,